Location: Muchchint?la
(16.9106°N, 80.2664°E)
Time: 00:53:15
(UTC+00:00)

COSMO-SKYMED 1 - Pass Details

Date: 14 April 2024
Orbit: 621 x 623 km, 97.9° (Epoch: 23 May)

Event Time Altitude Azimuth Distance (km) Brightness Sun altitude
Rises 23:57:57 0° 162° (SSE) 2,891 6.1 -6.9°
Reaches altitude 10° 00:00:09 10° 158° (SSE) 1,987 5.3 -6.4°
Maximum altitude 00:04:26 64° 78° (ENE) 692 3.2 -5.4°
Drops below altitude 10° 00:08:43 10° 356° (N) 1,991 5.3 -4.4°
Sets 00:10:55 0° 354° (N) 2,898 6.1 -3.9°
